Terminal Aerodrome Forecast
Issued by NWS Jackson, MS

Home | Current Version | Previous Version | Text Only | Print | Product List | Glossary On
Versions: 1 2 3 4 5 6 7 8 9 10 11 12 13 14
000
FTUS44 KJAN 172300
TAFJAN
TAF
KJAN 172339Z 1800/1824 VRB03KT P6SM BKN100
     FM181000 09004KT P6SM SCT050 OVC100
     FM181500 VRB03KT P6SM -RA BKN040 OVC060=

USA.gov is the U.S. government's official web portal to all federal, state and local government web resources and services.